Showing default

IRIDIUM 163, 43575

Orbit data source: Space-Track

IRIDIUM 163, 43575 is a payload satellite owned by Iridium (US) in LEO that was launched on Wed, 25 Jul 2018 UTC via an FALCON 9 launch vehicle from the Air Force Western Test Range (AFWTR). Payload-class satellites include a variety of spacecraft equipped with specific instruments for various scientific and technological missions. These include communications satellites like Starlink; space stations such as the ISS; scientific satellites like the Hubble; Earth observation satellites from companies like Planet Labs, Umbra, and HawkEye 360; GPS; miniature CubeSats for education and research; and military/defense satellites.

Loading next visibility...
Identifier
43575, 2018-061G
Orbit
LEO
Country
Flag of USUS
Related business
Manufacturer
NGIS SSG Gilbert
Mission
Operational Commercial Communications
Bus & Motor
ELITEBUS, Unknown motor
Mass
860 kg wet, 700 kg dry
Launch date (UTC)
2018-07-25 (8 years ago)
Launch vehicle
FALCON 9
Launch site
Air Force Western Test Range (AFWTR)
Object type
Payload
Rocket body
Debris
Shape & HBR
Trap Box + 2 Pan, 4.8 m
Radar Cross Section
10.154 m², Large (>1 m²)

Expand to show TLE details & history
Last TLE update: 19 hours ago

TLE from 19 hours ago
0 IRIDIUM 163
1 43575U 18061G   26033.62910578  .00000302  00000-0  10075-3 0  9993
2 43575  86.3971 113.0080 0002275  96.3845 263.7610 14.34217817394092
Epoch: 2026-02-02T15:05Z
TLE epoch observation values (Epoch: 2026-02-02T15:05:54.739Z)
Latitude
-0.00001°
Longitude
113.70827°
Altitude
780.895 km
Speed
7.463 km/s
True Right ascension
07h 32m 01s
True Declination
0° 00' 00"
Sunlit
Object was in full shadow at epoch
Visualization orbit readout
Latitude
Unknown
Longitude
Unknown
Altitude
Unknown
Speed
Unknown
Apparent Right ascension
Unknown
Apparent Declination
Unknown
Sunlit
N/A
Visualization observer readout
Local Sidereal Time
11:41:19
Azimuth
Unknown
Elevation
Unknown
Doppler factor
Unknown
Orbital elements
Apogee altitude
776.259 km
Perigee altitude
773.004 km
Semi-major axis
7,152.768 km
Eccentricity
0.00023
Inclination
86.3971°
RAAN
113.008°
Arg. of periapsis
96.3845°
True anomaly
263.73509°
Mean anomaly
263.761°
Eccentric anomaly
263.74804°
Mean motion
3.58783 °/min
Orbital period
100.34 mins
BSTAR
0.00010075
Loading maneuver chart data...
Computing Atmospheric mass density...
Loading historical data...
Loading historical data...
Loading historical data...
Loading historical data...
Loading historical data...
Loading historical data...
Loading historical data...

Documentation

Showing up to 5 results
|